FW6146 Weather Reports


Display with metric or nautical units.
time (UTC)temp
F
wind
direction
speed
MPH
gust
MPH
rain 1hr
in
rain 24hr
in
rain mn
in
humidity
%
barometer
mb
20260905020204 69 0.0 0.0 0.00 0.00 0.00 79 1008.6
20260905015150 69 0.0 0.0 0.00 0.00 0.00 78 1008.9
20260905014209 69 0.0 0.0 0.00 0.00 0.00 77 1008.9
20260905013156 70 0.0 0.0 0.00 0.00 0.00 78 1008.8
20260905012215 70 0.0 0.0 0.00 0.00 0.00 75 1008.9
20260905011201 71 0.0 0.0 0.00 0.00 0.00 76 1008.9
20260905010148 71 0.0 0.0 0.00 0.00 0.00 75 1008.9
20260905005227 72 0.0 0.0 0.00 0.00 0.00 74 1008.8
20260905004153 72 0.0 0.0 0.00 0.00 0.00 71 1008.7
20260905003213 72 0.0 0.0 0.00 0.00 0.00 73 1008.7
20260905002158 72 0.0 0.0 0.00 0.00 0.00 75 1008.7
20260905001217 72 0.0 0.0 0.00 0.00 0.00 76 1008.4
20260905000204 73 0.0 0.0 0.00 0.00 0.00 73 1008.6
20260904235209 73 0.0 0.0 0.00 0.00 0.00 71 1008.5
20260904234229 74 0.0 0.0 0.00 0.00 0.00 71 1008.0
20260904233155 74 0.0 0.0 0.00 0.00 0.00 66 1008.0
20260904232215 75 0.0 0.0 0.00 0.00 0.00 66 1007.9
20260904231202 76 0.0 0.0 0.00 0.00 0.00 64 1007.9
20260904230220 77 0.0 0.0 0.00 0.00 0.00 62 1007.9
20260904225206 77 0.0 0.0 0.00 0.00 0.00 63 1007.9
20260904224152 78 0.0 0.0 0.00 0.00 0.00 60 1007.9
20260904223231 79 0.0 0.0 0.00 0.00 0.00 59 1007.8
20260904222157 79 346 0.0 1.0 0.00 0.00 0.00 58 1007.8
20260904221217 80 307 0.0 1.0 0.00 0.00 0.00 55 1007.6
20260904220203 80 255 0.0 3.0 0.00 0.00 0.00 57 1007.7
20260904215222 80 190 2.0 5.0 0.00 0.00 0.00 53 1007.7
20260904214208 81 302 1.0 2.0 0.00 0.00 0.00 54 1007.7
20260904213154 81 317 1.0 2.0 0.00 0.00 0.00 55 1007.6
20260904212214 80 0.0 0.0 0.00 0.00 0.00 56 1007.7
20260904211220 80 353 0.0 2.0 0.00 0.00 0.00 55 1007.6
20260904210219 81 289 1.0 2.0 0.00 0.00 0.00 54 1007.7
20260904205205 80 297 0.0 1.0 0.00 0.00 0.00 57 1007.7
20260904204225 80 0.0 1.0 0.00 0.00 0.00 58 1007.6
20260904203211 81 195 1.0 3.0 0.00 0.00 0.00 55 1007.7
20260904202157 81 0.0 1.0 0.00 0.00 0.00 55 1007.9
20260904201216 82 0.0 0.0 0.00 0.00 0.00 56 1007.8
20260904200203 82 312 1.0 1.0 0.00 0.00 0.00 54 1007.6
20260904195242 82 274 1.0 2.0 0.00 0.00 0.00 52 1007.6
20260904194228 83 348 1.0 2.0 0.00 0.00 0.00 51 1007.5
20260904193307 83 0.0 1.0 0.00 0.00 0.00 54 1007.6
20260904192214 82 256 1.0 2.0 0.00 0.00 0.00 56 1007.6
20260904191200 82 324 1.0 2.0 0.00 0.00 0.00 57 1007.5
20260904190219 83 310 0.0 2.0 0.00 0.00 0.00 56 1007.8
20260904185205 83 0.0 2.0 0.00 0.00 0.00 57 1007.7
20260904184224 82 293 1.0 2.0 0.00 0.00 0.00 58 1007.7
20260904183210 82 327 1.0 1.0 0.00 0.00 0.00 59 1007.6
20260904182229 83 283 0.0 1.0 0.00 0.00 0.00 57 1008.1
20260904181215 84 307 0.0 2.0 0.00 0.00 0.00 56 1007.8
20260904180202 83 0.0 1.0 0.00 0.00 0.00 57 1007.8
20260904175221 82 0.0 3.0 0.00 0.00 0.00 59 1008.0
20260904174100 81 0.0 2.0 0.00 0.00 0.00 62 1007.9
20260904173120 80 0.0 1.0 0.00 0.00 0.00 60 1008.0
20260904172106 82 340 0.0 2.0 0.00 0.00 0.00 60 1008.1
20260904171126 81 340 1.0 2.0 0.00 0.00 0.00 59 1008.1
20260904170112 80 303 1.0 2.0 0.00 0.00 0.00 62 1008.3
20260904165131 80 280 0.0 1.0 0.00 0.00 0.00 63 1008.2
20260904164137 79 294 0.0 2.0 0.00 0.00 0.00 67 1008.4
20260904163103 80 0.0 1.0 0.00 0.00 0.00 64 1008.5
20260904162123 79 356 1.0 2.0 0.00 0.00 0.00 66 1008.5
20260904161109 78 312 1.0 5.0 0.00 0.00 0.00 67 1008.8
20260904160129 78 319 1.0 3.0 0.00 0.00 0.00 69 1008.9
20260904155115 78 0.0 1.0 0.00 0.00 0.00 72 1008.8
20260904154134 77 10 1.0 2.0 0.00 0.00 0.00 70 1009.1
20260904153121 77 299 2.0 2.0 0.00 0.00 0.00 73 1008.9
20260904152107 76 0.0 1.0 0.00 0.00 0.00 73 1009.1
20260904151127 76 272 0.0 2.0 0.00 0.00 0.00 75 1008.9
20260904150133 75 340 0.0 1.0 0.00 0.00 0.00 76 1009.2
20260904145132 74 271 0.0 3.0 0.00 0.00 0.00 78 1009.2
20260904144118 73 358 0.0 1.0 0.00 0.00 0.00 79 1009.1
20260904143137 73 321 0.0 2.0 0.00 0.00 0.00 81 1009.5
20260904142144 71 294 1.0 2.0 0.00 0.00 0.00 86 1009.4
20260904141110 69 0.0 0.0 0.00 0.00 0.00 97 1009.5
20260904140129 68 281 0.0 2.0 0.00 0.00 0.00 98 1009.3
20260904135115 68 0.0 1.0 0.00 0.00 0.00 99 1009.2
20260904134134 68 0.0 0.0 0.00 0.00 0.00 99 1009.5
20260904133120 67 0.0 1.0 0.00 0.00 0.00 99 1009.5
20260904132139 67 0.0 0.0 0.00 0.00 0.00 99 1009.5
20260904131126 67 0.0 1.0 0.00 0.00 0.00 99 1009.5
20260904130145 67 0.0 0.0 0.00 0.00 0.00 99 1009.6
20260904125151 66 0.0 1.0 0.00 0.00 0.00 99 1009.7
20260904124117 66 0.0 0.0 0.00 0.00 0.00 99 1009.8
20260904123156 66 0.0 0.0 0.00 0.00 0.00 99 1009.7
20260904122122 66 0.0 0.0 0.00 0.00 0.00 99 1009.5
20260904121142 66 0.0 0.0 0.00 0.00 0.00 99 1009.8
20260904120148 66 0.0 0.0 0.00 0.00 0.00 99 1009.6
20260904115227 66 0.0 0.0 0.00 0.00 0.00 99 1009.5
20260904114134 66 0.0 0.0 0.00 0.00 0.00 99 1009.6
20260904113120 66 0.0 0.0 0.00 0.00 0.00 99 1009.5
20260904112139 65 0.0 0.0 0.00 0.00 0.00 99 1009.4
20260904111125 65 0.0 0.0 0.00 0.00 0.00 99 1009.6
20260904110204 65 0.0 0.0 0.00 0.00 0.00 99 1009.5
20260904105130 65 0.0 0.0 0.00 0.00 0.00 99 1009.4
20260904104150 65 0.0 0.0 0.00 0.00 0.00 99 1009.5
20260904103136 65 0.0 0.0 0.00 0.00 0.00 99 1009.4
20260904102143 65 0.0 0.0 0.00 0.00 0.00 99 1009.3
20260904101143 65 0.0 0.0 0.00 0.00 0.00 99 1009.1
20260904100149 65 0.0 0.0 0.00 0.00 0.00 99 1009.1
20260904095148 66 0.0 0.0 0.00 0.00 0.00 99 1009.3
20260904094135 66 0.0 0.0 0.00 0.00 0.00 99 1009.3
20260904093121 66 0.0 0.0 0.00 0.00 0.00 99 1009.2
20260904092141 66 0.0 0.0 0.00 0.00 0.00 99 1009.3
20260904091127 66 0.0 0.0 0.00 0.00 0.00 99 1008.9
20260904090147 66 0.0 0.0 0.00 0.00 0.00 99 1009.2
20260904085133 66 0.0 0.0 0.00 0.00 0.00 99 1009.1
20260904084152 66 0.0 0.0 0.00 0.00 0.00 98 1009.0
20260904083138 66 0.0 0.0 0.00 0.00 0.00 98 1009.1
20260904082124 66 0.0 0.0 0.00 0.00 0.00 98 1009.3
20260904081204 66 0.0 0.0 0.00 0.00 0.00 98 1009.3
20260904080130 66 0.0 0.0 0.00 0.00 0.00 98 1009.4
20260904075149 66 0.0 0.0 0.00 0.00 0.00 98 1009.3
20260904074135 66 0.0 0.0 0.00 0.00 0.00 98 1009.5
20260904073155 66 0.0 0.0 0.00 0.00 0.00 98 1009.7
20260904072141 66 0.0 0.0 0.00 0.00 0.00 98 1009.9
20260904071206 66 0.0 0.0 0.00 0.00 0.00 98 1009.6
20260904070146 66 0.0 0.0 0.00 0.00 0.00 98 1009.9
20260904065152 65 0.0 0.0 0.00 0.00 0.00 98 1009.9
20260904064152 66 0.0 0.0 0.00 0.00 0.00 98 1009.9
20260904063138 66 0.0 0.0 0.00 0.00 0.00 98 1010.0
20260904062157 65 0.0 0.0 0.00 0.00 0.00 98 1010.0
20260904061143 65 0.0 0.0 0.00 0.00 0.00 98 1010.0
20260904060202 66 0.0 0.0 0.00 0.00 0.00 98 1010.2
20260904055148 66 0.0 0.0 0.00 0.00 0.00 98 1010.3
20260904054134 66 0.0 0.0 0.00 0.00 0.00 98 1010.4
20260904053154 66 0.0 0.0 0.00 0.00 0.00 98 1010.6
20260904052220 66 0.0 0.0 0.00 0.00 0.00 98 1010.5
20260904051200 66 0.0 0.0 0.00 0.00 0.00 98 1010.3
20260904050146 66 0.0 0.0 0.00 0.00 0.00 98 1010.3
20260904045205 66 0.0 0.0 0.00 0.00 0.00 98 1010.7
20260904044152 66 0.0 0.0 0.00 0.00 0.00 98 1010.6
20260904043138 66 0.0 0.0 0.00 0.00 0.00 98 1011.0
20260904042158 67 0.0 0.0 0.00 0.00 0.00 98 1010.9
20260904041144 67 0.0 0.0 0.00 0.00 0.00 98 1010.9
20260904040202 67 0.0 0.0 0.00 0.00 0.00 98 1010.9
20260904035149 67 0.0 0.0 0.00 0.00 0.00 98 1011.2
20260904034135 67 0.0 0.0 0.00 0.00 0.00 97 1010.9
20260904033154 67 0.0 0.0 0.00 0.00 0.00 97 1011.2
20260904032140 67 0.0 0.0 0.00 0.00 0.00 97 1011.1
20260904031159 67 0.0 0.0 0.00 0.00 0.00 97 1011.2
20260904030205 68 0.0 0.0 0.00 0.00 0.00 97 1011.1
20260904025202 68 0.0 0.0 0.00 0.00 0.00 97 1011.1
20260904024148 68 0.0 0.0 0.00 0.00 0.00 97 1011.3
20260904023207 68 0.0 0.0 0.00 0.00 0.00 97 1011.5
20260904022213 68 0.0 0.0 0.00 0.00 0.00 97 1011.5
20260904021137 68 0.0 0.0 0.00 0.00 0.00 97 1011.6